Weather in Kalinovskiy

Russia / Rostov Oblast     49°33′28″N   41°23′33″E
temp.,
°C
wind,
m/s
gust,
m/s
humid.,
%
clouds,
%
prec.,
mm/h
press.,
hPa
HPBL,
m
26 february, fri
fri2600:00−1w71296100 0.3 1020312
03:00+1w51198100 0.4 1020318
06:00+1w4998100 0.1 1019222
09:00+1w3799100 0.1 1019153
12:00+2wsw49100100 0.0 1018157
15:00+4w612100100 0.0 1017250
18:00+4wsw61499100 0.0 1016298
21:00+4w71498100 0.1 1014386
27 february, sat
sat2700:00+3wsw61397100 0.2 1013335
03:00+3w61296100 0.3 1012398
06:00+2w61295100 0.0 1011471
09:00+2w61194100 0.0 1011543
12:00+2w61190100 0.0 1011641
15:00+3w6980100 0.1 1010797
18:00+2wnw51191100 0.1 1010522
21:00+1wnw51192100 0.1 1011559
28 february, sun
sun2800:000nw61093100 0.0 1012582
03:000wnw4997100 0.1 1013374
06:000nw5995100 0.1 1014469
09:00−1nnw488298 0.2 1015508
12:00−1nnw457688 0.0 1015675
15:000nnw567492 0.0 1016775
18:00−2nnw5677100 0.0 1017752
21:00−2nnw3584100 0.1 1019531
1 march, mon
mon100:00−3n348796 0.1 1020434
03:00−3n238696 0.1 1021409
06:00−4n238896 0.0 1023337
09:00−4n348197 0.1 1025492
12:00−2n446896 0.0 1026722
15:00−1nnw456396 0.0 1026843
18:00−2nnw247355 0.0 1027154
21:00−3nw247627 0.0 1028151
2 march, tue
tue200:00−3w35790 0.0 1028190
03:00−3w498216 0.0 1027347
06:00−2w61279100 0.0 1025726
09:00−1w81381100 0.0 1023600
12:00+1w71283100 0.1 1021673
15:00+1w71385100 0.1 1018733
18:00+1wnw81496100 0.1 1017654
21:00+1nw81496100 0.1 1017707